GFSMA_925_thetae_132.txt.gz
Theta_e
338 343 343 345 346 347 347 345 346 347 346 345 344 341 337 338 344 346 347 347 346 347 347 346 347 347 349 350 350 350 350 350 350 350 348 348 347 346 345 344 344 343 343
343 345 344 345 345 346 345 348 347 346 346 345 346 346 346 345 346 348 347 348 347 347 348 347 347 347 349 351 351 352 351 349 349 349 348 346 345 347 347 346 344 343 342
344 346 348 345 352 347 348 347 348 346 344 344 345 347 348 347 349 350 346 345 346 346 346 347 349 349 350 352 351 351 347 345 338 347 345 345 345 348 346 345 344 343 342
344 347 349 350 351 351 351 349 351 348 346 345 346 346 347 349 348 349 349 348 348 346 348 349 349 351 352 351 351 347 345 341 334 339 341 341 341 347 347 344 344 343 342
345 345 347 350 349 348 352 352 354 355 347 346 345 346 346 348 346 347 348 346 343 342 345 347 349 350 353 352 350 344 343 339 333 335 338 344 346 345 345 345 344 342 342
341 346 347 349 350 351 351 353 354 354 350 350 351 345 342 343 343 345 341 345 342 340 339 346 349 350 353 352 348 341 341 341 335 341 345 345 345 345 345 344 343 342 340
348 346 349 347 346 346 353 354 354 354 357 348 349 343 337 338 340 342 341 338 335 337 336 343 348 351 353 350 346 341 339 341 336 344 344 345 345 344 343 343 342 340 341
349 349 349 348 348 349 353 352 355 355 353 353 352 346 340 341 340 341 340 335 332 333 335 342 344 348 346 348 344 342 338 341 337 341 344 345 344 343 342 341 340 340 339
348 349 347 349 342 348 352 353 355 353 349 346 345 342 340 338 339 338 340 339 339 337 335 337 337 340 346 346 344 342 339 339 341 338 343 344 344 342 342 341 340 340 337
345 347 351 351 349 349 353 353 354 351 345 344 340 339 338 337 335 336 337 340 337 335 338 334 336 340 349 348 346 343 341 335 341 339 343 344 343 342 341 341 340 340 335
346 348 350 349 351 349 352 352 354 352 337 347 337 336 342 339 337 336 336 335 335 337 337 337 335 342 348 349 349 345 342 335 340 343 340 343 343 342 341 341 341 339 336
348 349 349 349 348 347 351 354 354 353 350 350 339 340 339 345 344 340 337 338 338 339 337 338 343 346 347 350 350 348 346 342 338 342 344 343 344 343 345 343 341 339 337
346 346 347 350 347 346 352 354 352 352 353 353 349 349 349 350 347 341 341 340 339 340 337 342 347 350 351 349 349 349 350 351 335 338 344 344 345 346 349 348 348 345 340
348 346 344 351 349 349 354 353 353 352 353 354 352 352 351 351 347 345 343 342 341 343 341 344 348 350 351 350 350 350 351 351 344 336 338 342 343 344 347 346 346 345 345
351 349 348 347 349 350 350 353 350 352 352 354 352 352 351 350 350 350 349 347 347 344 345 350 347 348 351 352 351 352 351 352 348 339 336 336 338 340 342 346 348 347 345
349 350 349 349 350 349 353 352 350 351 350 352 349 349 349 351 350 352 351 352 352 349 345 350 349 350 351 352 352 352 353 349 348 343 340 338 339 340 340 340 342 345 347
350 350 351 350 351 350 352 350 348 349 349 350 348 350 348 348 348 350 349 350 349 349 348 349 351 350 351 349 348 352 349 348 349 347 345 343 341 341 342 342 340 340 343
351 348 348 350 349 352 350 349 350 349 352 350 350 350 348 349 349 349 350 349 349 351 352 349 351 351 350 350 351 350 349 348 350 350 352 352 351 347 343 342 343 343 340
352 350 351 351 352 352 351 350 350 350 349 350 351 350 350 349 349 349 350 348 349 349 350 345 346 350 349 347 345 344 346 345 346 350 351 351 352 353 353 353 350 344 344
350 353 353 351 351 350 351 351 351 350 350 350 351 351 350 350 349 348 350 349 348 345 347 347 347 350 351 349 350 351 348 346 345 350 352 351 353 354 353 352 352 348 345
351 352 352 353 352 351 350 351 350 349 349 350 347 350 348 350 350 349 350 351 347 347 350 351 351 350 351 351 352 352 350 348 348 352 351 351 352 351 348 348 351 351 348
352 351 352 350 351 350 350 350 350 349 349 349 348 350 349 348 348 350 349 348 349 350 351 349 350 350 349 351 353 351 349 351 350 350 349 347 343 342 344 351 351 350 351
351 351 352 351 350 351 349 349 348 350 348 347 347 345 344 346 348 348 346 345 348 351 350 349 349 348 348 343 339 346 347 349 348 343 343 338 336 338 343 343 344 347 348
350 351 351 350 347 345 346 347 346 348 348 346 346 348 348 346 346 347 348 349 347 343 338 335 334 335 336 337 339 342 348 346 346 347 329 332 335 333 343 344 338 343 341
348 348 344 341 341 342 343 345 346 348 348 348 346 343 340 336 336 338 340 337 328 332 336 340 337 336 336 342 342 339 335 337 340 344 327 330 333 335 338 346 338 336 334
339 332 326 327 329 333 338 344 344 346 342 332 326 325 324 325 327 320 319 320 328 328 329 326 326 326 326 325 325 330 334 335 339 336 326 327 329 336 339 340 334 332 323

GFSMA_925_thetae_138.txt.gz
Theta_e
340 343 345 345 345 345 345 346 346 345 344 343 342 341 340 341 343 345 345 346 346 347 347 347 347 349 349 348 348 348 345 340 341 344 346 347 346 346 345 344 343 344 344
343 346 346 346 344 345 346 346 347 345 345 345 344 340 339 342 345 345 345 345 346 347 347 347 349 351 351 347 347 345 342 345 342 343 343 345 344 345 346 343 343 343 343
345 346 347 348 350 346 347 348 349 347 344 344 345 346 346 346 346 347 347 345 346 347 348 348 349 350 349 345 349 347 345 347 340 341 340 342 343 346 345 344 343 343 342
346 346 348 348 350 350 352 353 350 347 345 344 345 345 346 346 347 348 347 344 343 345 348 349 350 347 344 343 345 349 340 343 344 348 348 345 345 346 344 344 343 342 342
344 347 348 348 350 352 353 352 351 346 345 344 345 345 345 346 347 346 341 336 336 344 348 349 347 346 345 344 340 343 341 345 344 344 345 344 344 344 344 343 342 342 342
344 347 348 348 350 352 354 352 350 349 348 347 346 345 344 345 346 344 341 340 338 341 340 341 345 345 347 345 340 340 341 345 345 343 343 343 344 344 344 343 342 342 341
346 345 347 346 349 350 353 353 350 347 346 344 343 342 341 341 342 341 338 334 333 338 338 335 340 346 347 347 343 339 340 345 349 343 342 343 343 343 342 342 342 341 341
347 348 346 346 349 351 352 352 349 346 343 344 343 342 346 345 338 339 339 337 335 336 336 334 337 344 348 348 346 340 340 341 350 343 342 342 342 342 341 341 340 341 341
346 347 347 345 347 349 350 349 348 346 345 342 345 343 345 346 337 335 335 339 339 335 336 335 339 344 348 348 348 344 338 341 349 342 341 341 341 341 340 340 340 338 335
347 347 347 347 347 350 350 349 345 345 340 338 338 338 336 336 340 339 334 336 335 335 336 339 344 348 348 348 349 346 340 341 342 342 342 341 341 340 340 340 339 336 330
346 346 349 349 347 348 350 350 343 342 341 337 338 338 340 337 337 336 342 336 337 337 342 345 347 348 348 347 348 348 345 338 343 343 342 341 341 341 340 339 339 335 332
346 346 348 348 346 347 349 349 349 349 349 345 346 339 342 344 343 339 341 338 339 338 340 345 347 349 349 347 348 349 348 343 338 343 342 343 345 348 347 344 340 336 335
345 347 348 347 348 346 348 349 351 351 349 350 348 350 349 347 343 341 341 341 342 344 344 345 345 347 348 351 350 350 350 350 338 338 340 341 344 347 345 344 343 343 342
345 345 347 348 349 348 346 351 351 350 351 350 350 350 350 347 344 343 343 344 350 343 344 346 346 349 349 350 348 348 350 350 346 338 337 338 340 342 343 345 344 343 342
347 346 346 346 345 349 347 350 350 350 352 351 351 350 349 348 347 346 346 345 346 350 350 348 348 349 350 347 347 347 347 348 347 340 340 339 339 340 341 341 344 344 343
346 347 348 347 346 345 348 350 349 349 350 351 350 348 349 349 350 350 350 350 349 347 348 348 349 347 350 350 349 347 349 349 348 347 345 342 341 340 340 341 343 342 344
348 347 347 349 349 347 348 349 350 351 349 349 350 349 348 349 349 350 348 350 349 349 346 349 349 347 348 347 347 345 345 348 349 350 350 348 347 345 343 341 341 342 342
348 347 347 348 348 349 349 349 349 349 347 348 348 348 349 349 348 350 349 348 348 350 348 347 348 349 346 344 344 345 343 344 348 350 351 351 351 351 351 351 349 343 342
348 349 348 347 348 348 349 348 349 347 348 347 348 349 349 348 348 349 349 348 348 349 347 344 345 347 347 346 345 346 344 350 350 351 352 349 347 348 349 350 349 347 347
348 350 349 348 348 348 349 349 350 350 349 349 348 349 349 349 350 348 348 348 347 345 345 344 345 347 348 349 348 347 345 349 346 347 342 340 346 347 348 347 348 348 345
349 349 348 348 348 348 348 349 350 348 348 348 349 349 348 348 349 348 348 348 349 346 347 348 347 347 348 348 350 349 346 347 343 344 335 342 344 342 337 334 333 339 346
349 350 350 350 349 347 349 349 349 349 349 348 349 347 347 346 347 346 348 347 347 347 348 347 346 346 347 349 339 341 346 346 348 333 337 336 340 333 325 325 327 330 333
348 349 350 349 349 348 348 348 349 349 349 349 348 347 347 347 346 346 347 347 347 347 347 347 346 345 345 346 335 340 346 345 332 327 330 331 337 336 323 326 326 326 328
344 344 343 343 346 347 346 345 346 347 347 347 347 347 345 345 345 345 346 344 341 341 340 337 335 337 337 335 337 341 345 344 341 326 327 332 328 336 324 324 324 325 324
341 341 341 342 342 342 343 343 343 343 345 345 346 345 343 342 343 346 343 340 336 334 334 333 331 334 338 342 342 336 334 337 341 331 325 329 328 332 334 322 322 323 322
340 339 341 340 341 341 341 342 342 342 342 341 341 340 338 340 337 340 339 334 330 326 325 324 324 325 325 325 326 327 326 329 329 323 321 321 321 322 335 334 321 318 318

GFSMA_925_thetae_141.txt.gz
Theta_e
342 345 345 346 346 345 346 346 345 344 344 342 340 340 344 343 344 345 345 345 346 347 347 347 348 350 350 346 344 348 340 344 344 343 342 347 346 345 344 344 343 344 344
345 345 348 347 347 346 348 347 346 345 346 346 344 341 341 343 345 344 344 347 346 347 348 348 348 349 348 344 346 348 341 345 343 343 344 345 344 344 345 345 344 343 344
345 345 348 349 349 347 348 350 348 344 346 348 345 346 350 348 352 348 348 345 346 347 348 348 349 347 345 342 344 347 341 348 348 347 341 343 343 345 346 344 343 343 343
344 347 348 349 351 351 352 352 348 345 345 346 346 345 346 349 350 350 345 341 345 347 349 349 347 348 345 340 340 345 342 347 348 350 348 347 346 346 344 345 343 342 342
344 347 348 350 351 352 351 355 351 347 347 348 347 346 347 349 348 346 340 335 341 343 345 345 345 345 344 340 338 341 343 348 350 347 344 345 344 344 344 343 342 342 342
344 346 347 349 351 356 355 352 350 348 349 349 348 348 347 347 349 347 344 339 341 340 339 340 345 346 345 342 337 341 344 348 349 343 343 344 344 344 343 343 342 341 341
346 345 347 346 351 355 353 350 349 347 348 346 348 349 346 344 346 346 340 336 334 336 339 334 339 346 348 346 339 340 342 348 347 343 342 342 342 342 342 342 342 341 339
348 347 345 346 349 356 351 352 349 350 348 346 352 351 353 352 345 343 338 337 336 336 340 338 338 346 348 350 342 338 342 345 348 342 341 342 342 341 341 341 341 341 341
346 348 345 346 349 353 353 347 348 347 351 345 343 350 349 347 346 342 338 341 336 339 340 339 345 345 347 348 348 342 341 342 349 343 341 341 340 340 340 340 340 338 335
346 346 347 346 348 351 350 348 344 345 343 347 343 341 340 342 345 345 342 341 338 342 344 347 347 347 346 348 348 345 337 343 342 344 341 340 340 340 340 339 338 333 330
347 345 348 349 347 351 350 349 344 345 343 344 344 345 347 344 344 345 345 342 343 345 345 347 349 349 346 348 351 349 341 337 341 342 342 341 340 340 339 339 337 333 329
349 345 347 348 347 347 348 348 349 349 349 349 349 347 350 351 351 348 350 349 349 347 348 349 348 348 352 352 349 349 349 336 336 338 342 342 343 345 344 343 338 336 332
348 348 346 347 347 347 346 349 350 350 350 352 351 353 352 351 348 347 350 351 351 350 349 349 349 352 352 355 350 349 349 346 337 337 339 341 342 345 344 343 342 341 339
348 345 346 347 348 348 348 346 352 353 352 354 352 350 354 352 348 348 349 351 351 348 350 352 351 352 355 351 348 348 349 348 340 339 339 340 341 342 344 345 344 343 342
347 346 346 346 346 346 349 347 353 351 351 353 354 351 353 353 348 347 348 350 352 351 349 352 352 353 354 354 350 353 348 347 344 341 340 340 340 340 342 341 343 344 343
346 346 346 347 347 346 346 348 352 352 350 353 352 350 350 354 353 353 354 354 352 353 352 352 353 352 353 353 349 353 348 349 349 349 346 342 341 340 340 342 343 343 343
346 347 347 347 348 349 347 347 346 349 349 350 351 350 349 351 352 352 350 353 354 353 351 353 353 352 354 353 352 351 351 353 352 350 350 350 348 346 345 342 341 342 343
347 347 347 346 345 349 353 349 350 350 351 350 351 353 353 351 353 350 352 348 351 352 352 352 348 352 353 352 352 353 350 351 352 351 350 348 348 349 349 350 350 349 343
347 347 348 347 348 348 348 352 349 350 350 351 350 351 350 350 347 349 347 352 351 352 352 351 350 351 352 351 352 352 353 353 351 349 346 346 347 348 348 347 347 347 346
348 348 348 349 348 347 349 350 349 348 347 348 349 349 349 350 349 347 346 346 350 349 350 349 349 350 351 353 353 352 350 351 349 347 344 345 340 337 337 338 342 346 345
347 347 348 349 348 347 347 347 347 348 348 348 348 348 347 346 347 346 346 346 346 347 349 351 350 350 350 351 353 352 350 351 343 343 343 345 338 333 328 332 335 338 343
347 350 350 349 349 349 348 347 348 348 348 348 346 346 347 348 347 346 346 346 346 346 348 351 349 348 351 351 349 346 350 350 348 336 340 344 334 327 323 321 327 332 334
348 349 349 349 349 348 347 346 346 346 346 348 349 348 348 346 345 346 345 346 346 347 346 347 350 351 351 351 345 345 351 344 338 330 337 340 333 330 325 320 322 323 323
347 346 344 343 344 344 345 345 344 344 345 345 347 347 346 344 344 344 344 343 341 339 340 339 339 338 339 340 337 347 349 345 334 328 331 333 339 328 322 321 322 322 321
340 339 340 339 340 339 340 342 343 342 343 344 344 345 345 343 342 343 341 337 335 334 335 336 336 338 341 339 341 344 343 348 345 332 325 333 330 335 327 326 321 319 318
339 338 339 339 338 337 337 340 342 341 341 342 341 342 344 342 341 341 339 334 331 329 326 326 325 325 326 326 330 332 333 338 336 330 320 327 326 327 337 326 322 320 315

GFSMA_925_thetae_144.txt.gz
Theta_e
351 351 354 351 352 351 351 351 350 349 348 348 348 348 346 347 348 349 349 350 346 347 347 348 349 351 351 350 351 343 344 341 343 344 343 347 346 346 344 344 344 345 344
352 351 352 351 351 352 352 352 353 349 349 348 348 348 349 351 353 352 352 353 346 347 348 348 350 349 348 351 351 340 345 347 346 341 347 345 345 345 345 344 344 344 345
353 354 352 352 353 355 357 355 353 351 348 348 351 352 353 355 355 355 352 348 350 351 349 350 348 351 349 347 351 345 346 348 347 347 342 343 344 344 345 345 345 344 344
353 354 352 354 358 356 356 353 350 347 347 347 351 352 353 353 355 353 349 345 347 351 350 346 346 346 351 349 350 350 348 348 349 349 351 348 346 345 345 344 343 343 343
352 354 354 357 359 356 356 355 353 352 351 351 350 352 354 354 353 350 347 346 343 347 348 347 347 346 343 342 348 350 348 347 347 347 345 344 345 345 343 343 342 342 343
351 354 354 356 357 355 354 355 358 355 355 354 349 351 352 352 352 351 350 347 345 340 345 345 350 350 349 342 342 350 348 345 346 345 343 343 343 343 343 342 343 342 342
354 355 351 353 355 355 357 359 356 356 353 354 354 350 352 350 350 348 346 343 343 342 347 344 348 351 351 348 340 344 349 346 344 344 342 342 342 342 342 342 342 342 338
354 354 353 351 356 355 358 360 359 354 353 353 351 352 348 354 349 346 345 343 347 344 342 346 350 353 352 349 344 342 343 345 341 341 341 341 341 341 342 342 340 339 338
350 355 353 356 356 355 354 355 356 357 352 351 351 349 347 346 346 344 346 344 345 343 347 350 351 352 354 353 347 342 342 342 340 340 341 340 340 341 341 341 341 340 338
351 352 353 354 356 354 354 354 349 354 354 350 348 347 347 349 349 348 344 345 345 348 353 352 352 352 353 352 351 337 338 341 341 340 340 340 340 340 339 337 335 332 329
353 350 353 354 355 351 353 355 355 356 353 352 351 347 351 350 352 349 348 346 347 348 350 351 351 350 353 352 351 344 336 338 341 342 341 340 340 340 339 338 334 331 332
348 351 351 351 353 354 353 353 355 357 357 357 356 356 354 353 351 351 351 349 350 349 350 350 351 352 352 352 350 348 340 337 338 340 342 345 345 344 342 338 336 334 328
347 348 352 352 349 352 353 354 355 356 356 356 357 355 355 353 351 351 351 350 348 347 346 346 349 351 353 353 352 351 348 339 338 340 341 341 344 344 344 343 341 338 335
347 349 351 352 354 352 352 354 351 351 354 354 356 356 355 354 353 353 352 350 347 345 348 351 349 351 354 352 350 353 352 347 339 339 340 342 343 343 345 344 343 342 341
348 351 351 352 353 353 352 352 350 353 353 354 353 356 353 353 352 352 353 353 352 349 346 350 347 355 355 354 354 354 354 346 343 342 340 340 340 342 344 343 344 344 343
352 352 352 353 353 354 354 353 350 352 354 352 351 354 354 350 351 350 351 352 352 351 348 349 349 354 357 353 352 355 352 351 349 349 348 344 342 341 341 343 343 343 343
353 354 354 353 353 354 354 354 353 352 353 352 352 352 352 353 351 348 349 348 349 350 347 350 350 354 355 356 355 355 353 354 353 350 349 350 349 349 348 346 343 342 343
352 353 352 351 352 352 352 353 352 350 352 352 351 352 353 350 353 352 349 351 347 349 348 349 349 348 352 353 356 356 351 349 351 348 348 348 348 348 348 348 348 348 346
352 351 353 353 353 351 350 353 353 351 352 351 351 351 352 351 351 350 350 349 350 348 349 347 348 349 351 353 353 354 352 352 350 346 346 340 339 339 341 344 346 346 346
353 352 353 352 353 352 350 351 353 352 351 350 351 350 351 351 350 351 349 351 350 351 349 349 347 350 349 350 351 348 350 348 349 347 345 342 336 333 335 336 338 342 345
354 353 352 351 352 352 351 353 352 352 351 351 350 350 350 351 348 346 348 349 350 351 348 348 347 346 346 348 351 348 348 351 348 347 347 342 336 330 325 327 329 332 336
354 353 352 348 352 351 347 347 348 352 353 351 351 351 350 350 349 347 345 347 347 349 350 349 349 349 350 349 349 347 347 351 348 344 346 339 333 328 323 319 321 323 324
351 353 353 353 353 349 348 347 346 349 348 351 351 350 348 350 348 352 347 346 345 346 346 348 351 350 351 351 352 350 349 350 347 339 344 340 339 333 324 318 321 323 323
352 352 352 352 351 343 345 344 344 348 348 345 344 345 352 349 347 349 347 345 344 344 344 345 347 345 342 347 347 347 351 345 338 334 338 338 339 331 324 319 320 320 319
344 342 342 343 345 342 339 340 342 348 346 345 345 345 345 344 343 343 342 339 336 336 337 337 337 338 341 339 342 347 350 349 348 336 329 336 335 336 332 330 322 322 319
338 336 336 336 335 335 337 339 340 344 346 343 342 343 343 341 342 341 341 338 333 328 328 330 331 331 329 328 334 332 334 341 341 336 323 331 330 330 334 331 326 325 321

GFSMA_925_thetae_147.txt.gz
Theta_e
349 349 351 350 351 347 347 347 348 348 347 347 347 348 347 349 351 351 354 352 346 348 348 348 350 353 353 352 351 350 348 347 345 345 347 347 350 346 344 344 345 345 345
352 349 351 350 349 350 348 349 353 349 348 347 349 351 353 354 356 356 354 353 350 348 348 349 349 349 347 352 352 350 348 348 347 342 345 347 348 348 346 344 344 344 345
351 354 349 350 353 351 355 351 350 348 347 348 351 353 353 355 356 357 351 350 351 352 347 346 346 346 346 351 351 349 348 348 348 348 343 343 345 345 346 345 344 344 344
357 353 351 355 353 351 348 347 346 346 345 346 350 351 352 354 355 354 348 348 349 353 350 346 347 344 338 348 352 349 348 345 347 347 347 347 346 346 345 345 345 344 344
356 353 353 354 351 351 350 348 347 349 346 348 349 349 354 353 352 351 350 346 348 345 349 350 350 350 348 339 351 349 346 350 345 345 345 345 347 344 344 344 343 344 344
355 358 353 356 358 354 352 355 358 354 352 353 349 350 351 352 353 352 351 349 344 342 347 347 352 352 350 340 346 351 351 346 343 343 343 343 343 343 342 342 342 343 343
354 357 351 353 357 353 357 358 356 355 352 354 355 349 352 353 352 348 345 344 346 345 348 349 352 352 351 344 341 347 348 348 342 342 342 342 342 342 342 342 342 343 342
355 356 354 352 352 358 358 359 360 356 353 353 352 352 350 352 349 345 347 345 348 345 345 351 353 355 350 350 343 342 343 342 341 341 341 341 342 342 342 341 339 340 339
352 355 355 357 354 354 355 355 356 359 352 354 352 349 350 350 349 347 345 345 347 346 351 352 352 354 352 350 348 342 342 340 341 340 340 341 341 341 340 339 339 339 339
351 352 353 354 355 354 353 353 355 357 351 351 350 349 352 353 353 355 347 348 350 351 354 352 352 353 353 352 337 337 340 341 340 340 340 340 340 339 339 338 336 333 329
351 350 353 354 354 355 354 355 357 358 358 355 354 350 354 352 353 352 350 350 349 350 351 348 349 351 350 353 351 337 338 340 342 341 340 340 340 339 337 333 332 331 332
350 350 350 353 354 355 355 355 356 359 358 358 355 357 352 351 350 351 353 352 347 348 350 347 347 348 338 351 347 344 338 339 340 341 343 346 344 345 340 338 334 330 330
346 354 351 352 351 354 352 354 355 354 356 356 356 355 354 352 351 350 351 350 347 346 347 347 344 352 352 354 350 350 344 339 340 341 341 344 345 344 343 341 340 338 337
347 352 351 351 352 352 353 355 353 353 356 355 354 355 352 352 351 352 351 352 349 343 348 346 348 352 353 352 351 352 349 341 340 340 341 342 343 344 345 344 343 342 337
347 349 348 351 352 352 353 353 352 352 352 353 353 355 352 350 347 348 348 346 345 348 346 348 350 352 344 347 355 356 354 345 342 341 340 340 342 343 344 344 344 343 342
350 353 352 351 352 353 354 354 349 351 353 351 352 355 353 349 349 345 346 347 345 350 347 344 351 349 355 349 354 356 351 348 348 349 347 343 341 341 342 344 344 343 343
353 353 354 355 353 353 353 354 355 354 353 352 351 351 352 351 347 348 350 346 348 348 349 347 347 355 352 356 356 357 351 336 348 349 348 349 349 348 347 344 342 343 344
353 354 353 354 354 352 353 354 354 352 354 351 351 350 351 349 354 350 349 352 349 346 345 350 346 348 353 352 357 357 353 352 346 348 348 347 346 345 346 346 347 347 346
354 354 353 354 354 354 352 352 355 355 352 352 349 350 352 350 352 350 353 351 349 351 350 350 348 349 348 352 353 352 352 353 347 343 342 341 338 338 339 340 343 345 345
354 353 353 355 354 354 353 350 352 354 352 350 349 350 349 350 350 351 353 352 350 352 346 350 346 348 346 350 349 348 349 349 345 343 341 337 333 330 330 330 332 337 342
355 355 351 353 354 355 353 353 353 353 354 353 350 349 350 350 351 348 348 350 353 351 351 350 350 348 350 349 349 347 347 350 348 348 345 339 334 328 324 323 324 325 327
353 355 355 354 350 352 350 348 348 353 353 354 353 352 351 351 349 347 347 345 347 348 352 348 348 352 350 349 349 349 349 350 349 348 346 340 334 326 322 321 321 322 323
348 352 353 352 352 349 348 348 347 347 352 353 354 350 353 350 352 352 351 346 346 345 345 346 351 353 353 353 353 353 350 353 352 346 345 340 337 332 322 320 320 320 319
343 346 350 350 351 346 345 345 345 345 352 352 352 353 354 347 350 351 351 351 344 343 343 345 346 346 341 342 350 349 353 350 343 340 342 344 340 334 323 322 321 321 320
346 347 345 345 341 339 339 340 340 347 350 348 348 350 350 350 346 344 344 342 341 339 339 336 335 335 338 339 341 348 352 351 346 334 334 338 340 339 334 327 326 325 321
338 338 337 335 335 333 334 335 338 340 347 347 342 341 345 346 343 342 345 341 336 331 331 332 332 331 330 329 334 331 332 342 343 336 324 332 333 333 334 335 329 326 322